User: anonymous   Login
Location: Unspecified
(0.0000°N, 0.0000°E)
Time: 23:43:12
(UTC+00:00)
Language:

Midas 4 - Orbit

View from above orbital plane
View from above orbital plane
View from above satellite
View from above satellite

Ground track
Ground track

The orbit data is extracted from the following two-line orbital elements,

1 00192U 61028A   18115.01511816  .00000011  00000-0  66171-2 0  9993
2 00192  95.8544 317.8192 0140195 358.7177   1.3302  8.67757263790352
Epoch (UTC): 25 April 2018 00:21:46
Eccentricity: 0.0140195
inclination: 95.8544°
perigee height: 3485 km
apogee height: 3765 km
right ascension of ascending node: 317.8192°
argument of perigee: 358.7177°
revolutions per day: 8.67757263
mean anomaly at epoch: 1.3302°
orbit number at epoch: 79035

The dashed part of the orbit path shows where the satellite is in the earth's shadow,  

DLR